Dayton, OR

8:54 PM PDT on July 23, 2016 (GMT -0700)
McMinnville Municipal

Weather History for KMMV - March, 2013

Change the Weather History Date:

Wednesday, March 6, 2013

  Actual Average Record
Temperature  
Mean Temperature 43 °F 45 °F  
Max Temperature 47 °F 54 °F 69 °F (2001)
Min Temperature 38 °F 36 °F 15 °F (1956)
Degree Days  
Heating Degree Days 22 20  
Month to date heating degree days 120 122  
Since 1 July heating degree days 3197 3501  
Cooling Degree Days 0 0  
Month to date cooling degree days 0 0  
Year to date cooling degree days 0 0  
Moisture  
Dew Point 41 °F    
Average Humidity 91    
Maximum Humidity 100    
Minimum Humidity 82    
Precipitation  
Precipitation 0.26 in 0.12 in 1.45 in (1932)
Month to date precipitation 0.63 0.73  
Year to date precipitation 3.30 11.27  
Snow  
Snow 0.00 in - - ()
Month to date snowfall 0.0  
Snow Depth 0.00 in    
Sea Level Pressure  
Sea Level Pressure 29.72 in    
Wind  
Wind Speed 8 mph (SSW)    
Max Wind Speed 16 mph    
Max Gust Speed 22 mph    
Visibility 8 miles    
Events Rain    
T = Trace of Precipitation, MM = Missing Value Source: NWS Daily Summary

Daily Weather History Graph

Daily Weather History Graph

Search for Another Location

Airport or City:

Trip Planner

Search our weather history database for the weather conditions in past years. The results will help you decide how hot, cold, wet, or windy it might be!

Date:

Astronomy

Mar. 06, 2013 Rise Set
Actual Time 6:40 AM PST 6:07 PM PST
Civil Twilight 6:11 AM PST 6:36 PM PST
Nautical Twilight 5:37 AM PST 7:10 PM PST
Astronomical Twilight 5:03 AM PST 7:45 PM PST
Moon 3:06 AM PST (3/6) 12:43 PM PST (3/6)
Length of Visible Light 12h 24m
Length of Day
11h 26m
Waning Crescent, 29% of the Moon is Illuminated
Mar 6
Waning Crescent
Mar 11
New
Mar 19
First Quarter
Mar 27
Full
Apr 2
Last Quarter

Hourly Weather History & Observations

Time (PST) Temp. Windchill Dew Point Humidity Pressure Visibility Wind Dir Wind Speed Gust Speed Precip Events Conditions
12:53 AM 42.1 °F 38.4 °F 39.9 °F 92% 29.63 in 10.0 mi North 5.8 mph - 0.00 in Rain Light Rain
1:53 AM 41.0 °F 35.8 °F 39.9 °F 96% 29.62 in 5.0 mi North 8.1 mph - 0.03 in Rain Light Rain
2:53 AM 41.0 °F 36.4 °F 39.9 °F 96% 29.59 in 8.0 mi NNW 6.9 mph - 0.02 in Rain Light Rain
3:49 AM 42.8 °F 39.3 °F 39.2 °F 87% 29.57 in 7.0 mi NNW 5.8 mph - 0.01 in Rain Light Rain
3:53 AM 42.1 °F 37.7 °F 39.9 °F 92% 29.57 in 7.0 mi NNW 6.9 mph - 0.01 in Rain Light Rain
4:53 AM 42.1 °F 37.7 °F 39.9 °F 92% 29.57 in 10.0 mi NNW 6.9 mph - 0.01 in   Overcast
5:53 AM 42.1 °F 38.4 °F 39.9 °F 92% 29.57 in 10.0 mi NNW 5.8 mph - N/A   Overcast
6:53 AM 41.0 °F 38.0 °F 41.0 °F 100% 29.57 in 10.0 mi WSW 4.6 mph - 0.00 in   Overcast
7:22 AM 42.8 °F 41.1 °F 42.8 °F 100% 29.58 in 7.0 mi SW 3.5 mph - 0.00 in Rain Light Rain
7:53 AM 42.1 °F - 42.1 °F 100% 29.59 in 7.0 mi Calm Calm - 0.00 in Rain Light Rain
8:53 AM 43.0 °F 40.3 °F 43.0 °F 100% 29.62 in 6.0 mi SW 4.6 mph - 0.01 in Rain Light Rain
9:01 AM 42.8 °F 39.3 °F 42.8 °F 100% 29.62 in 6.0 mi SW 5.8 mph - 0.00 in Rain Light Rain
9:12 AM 42.8 °F 39.3 °F 42.8 °F 100% 29.62 in 5.0 mi SSW 5.8 mph - 0.00 in Rain Light Rain
9:39 AM 42.8 °F 38.0 °F 42.8 °F 100% 29.63 in 6.0 mi SSW 8.1 mph - 0.02 in Rain Light Rain
9:53 AM 43.0 °F 38.8 °F 43.0 °F 100% 29.64 in 5.0 mi SSW 6.9 mph - 0.03 in Rain Light Rain
10:53 AM 44.1 °F 40.1 °F 43.0 °F 96% 29.68 in 5.0 mi SSW 6.9 mph - 0.05 in Rain Light Rain
11:53 AM 44.1 °F 41.5 °F 44.1 °F 100% 29.71 in 7.0 mi SSW 4.6 mph - 0.05 in Rain Light Rain
12:42 PM 46.4 °F 41.1 °F 42.8 °F 87% 29.73 in 10.0 mi South 11.5 mph - 0.01 in Rain Light Rain
12:53 PM 46.0 °F 41.0 °F 43.0 °F 89% 29.73 in 10.0 mi South 10.4 mph - 0.02 in Rain Light Rain
1:16 PM 44.6 °F 37.4 °F 42.8 °F 93% 29.74 in 9.0 mi South 16.1 mph 21.9 mph 0.01 in Rain Light Rain
1:53 PM 45.0 °F 39.3 °F 42.1 °F 90% 29.76 in 9.0 mi South 11.5 mph - 0.02 in Rain Light Rain
2:01 PM 44.6 °F 39.2 °F 42.8 °F 93% 29.76 in 10.0 mi South 10.4 mph - 0.00 in Rain Light Rain
2:53 PM 45.0 °F 39.7 °F 41.0 °F 86% 29.79 in 10.0 mi SSE 10.4 mph - 0.01 in Rain Light Rain
3:53 PM 46.0 °F 40.6 °F 42.1 °F 86% 29.81 in 10.0 mi South 11.5 mph - 0.00 in   Overcast
4:53 PM 46.0 °F 41.4 °F 42.1 °F 86% 29.82 in 10.0 mi South 9.2 mph - 0.00 in   Mostly Cloudy
5:53 PM 45.0 °F 40.1 °F 41.0 °F 86% 29.84 in 10.0 mi South 9.2 mph - N/A   Clear
6:53 PM 44.1 °F 38.6 °F 39.0 °F 82% 29.87 in 10.0 mi South 10.4 mph - 0.00 in   Mostly Cloudy
7:53 PM 45.0 °F 39.7 °F 39.9 °F 82% 29.90 in 10.0 mi South 10.4 mph - 0.00 in   Overcast
8:53 PM 44.1 °F 38.6 °F 39.9 °F 85% 29.92 in 10.0 mi SSE 10.4 mph - 0.00 in   Overcast
9:53 PM 44.1 °F 39.0 °F 39.0 °F 82% 29.94 in 10.0 mi South 9.2 mph - N/A   Overcast
10:53 PM 42.1 °F 36.6 °F 37.0 °F 82% 29.97 in 10.0 mi SSE 9.2 mph - 0.00 in   Mostly Cloudy
11:53 PM 39.0 °F 34.8 °F 35.1 °F 86% 29.98 in 10.0 mi SE 5.8 mph - N/A   Clear